Yankton, SD

9:28 PM CST on December 10, 2016 (GMT -0600)
Gurney Municipal

Weather History for KYKN - October, 2014

Change the Weather History Date:

Monday, October 27, 2014

  Actual Average Record
Temperature  
Mean Temperature 50 °F -  
Max Temperature 57 °F 61 °F 87 °F (1955)
Min Temperature 42 °F 35 °F 17 °F (1957)
Degree Days  
Heating Degree Days 14    
Moisture  
Dew Point 43 °F    
Average Humidity 73    
Maximum Humidity 94    
Minimum Humidity 47    
Precipitation  
Precipitation 0.00 in - - ()
Sea Level Pressure  
Sea Level Pressure 29.71 in    
Wind  
Wind Speed 10 mph (WNW)    
Max Wind Speed 25 mph    
Max Gust Speed 31 mph    
Visibility 10 miles    
Events      
Averages and records for this station are not official NWS values.
T = Trace of Precipitation, MM = Missing Value Source: NWS Daily Summary

Daily Weather History Graph

Daily Weather History Graph

Search for Another Location

Airport or City:

Trip Planner

Search our weather history database for the weather conditions in past years. The results will help you decide how hot, cold, wet, or windy it might be!

Date:

Astronomy

Oct. 27, 2014 Rise Set
Actual Time 7:57 AM CDT 6:28 PM CDT
Civil Twilight 7:28 AM CDT 6:57 PM CDT
Nautical Twilight 6:55 AM CDT 7:30 PM CDT
Astronomical Twilight 6:22 AM CDT 8:03 PM CDT
Moon 11:37 AM CDT (10/27) 9:32 PM CDT (10/27)
Length of Visible Light 11h 29m
Length of Day
10h 30m
Waxing Crescent, 15% of the Moon is Illuminated
Oct 27
Waxing Crescent
Oct 30
First Quarter
Nov 6
Full
Nov 14
Last Quarter
Nov 22
New

Hourly Weather History & Observations

Time (CDT) Temp. Windchill Dew Point Humidity Pressure Visibility Wind Dir Wind Speed Gust Speed Precip Events Conditions
12:15 AM 48.2 °F - 44.6 °F 87% 29.54 in 10.0 mi North 3.5 mph - N/A   Clear
12:35 AM 48.2 °F - 46.4 °F 93% 29.54 in 10.0 mi North 3.5 mph - N/A   Clear
12:55 AM 50.0 °F - 46.4 °F 87% 29.54 in 10.0 mi NW 5.8 mph - N/A   Clear
1:35 AM 50.0 °F - 46.4 °F 87% 29.55 in 10.0 mi NW 6.9 mph - N/A   Clear
1:55 AM 48.2 °F - 46.4 °F 93% 29.55 in 10.0 mi WSW 4.6 mph - N/A   Clear
2:15 AM 51.8 °F - 48.2 °F 88% 29.55 in 10.0 mi West 6.9 mph - N/A   Clear
2:35 AM 53.6 °F - 48.2 °F 82% 29.55 in 10.0 mi West 6.9 mph - N/A   Clear
2:55 AM 50.0 °F - 46.4 °F 87% 29.55 in 10.0 mi NW 5.8 mph - N/A   Clear
3:15 AM 48.2 °F - 44.6 °F 87% 29.55 in 10.0 mi West 4.6 mph - N/A   Clear
3:35 AM 48.2 °F - 46.4 °F 93% 29.55 in 9.0 mi Calm Calm - N/A   Clear
3:55 AM 48.2 °F - 46.4 °F 93% 29.55 in 9.0 mi NW 6.9 mph - N/A   Clear
4:15 AM 50.0 °F - 46.4 °F 87% 29.57 in 10.0 mi WNW 5.8 mph - N/A   Clear
4:35 AM 51.8 °F - 46.4 °F 82% 29.57 in 10.0 mi WNW 4.6 mph - N/A   Clear
4:55 AM 50.0 °F - 48.2 °F 94% 29.57 in 8.0 mi West 6.9 mph - N/A   Clear
5:15 AM 51.8 °F - 48.2 °F 88% 29.58 in 10.0 mi West 8.1 mph - N/A   Clear
5:35 AM 51.8 °F - 48.2 °F 88% 29.60 in 10.0 mi West 12.7 mph - N/A   Clear
5:55 AM 53.6 °F - 48.2 °F 82% 29.59 in 10.0 mi WNW 9.2 mph - N/A   Clear
6:15 AM 51.8 °F - 48.2 °F 88% 29.59 in 10.0 mi NNW 5.8 mph - N/A   Clear
6:35 AM 51.8 °F - 48.2 °F 88% 29.60 in 10.0 mi NW 5.8 mph - N/A   Clear
6:55 AM 53.6 °F - 48.2 °F 82% 29.60 in 10.0 mi WNW 10.4 mph - N/A   Clear
7:15 AM 53.6 °F - 48.2 °F 82% 29.60 in 10.0 mi NW 10.4 mph - N/A   Scattered Clouds
7:35 AM 53.6 °F - 48.2 °F 82% 29.62 in 10.0 mi WNW 11.5 mph - N/A   Partly Cloudy
7:55 AM 53.6 °F - 46.4 °F 77% 29.63 in 10.0 mi NW 11.5 mph - N/A   Scattered Clouds
8:15 AM 53.6 °F - 46.4 °F 77% 29.61 in 10.0 mi NW 13.8 mph - N/A   Mostly Cloudy
8:35 AM 53.6 °F - 46.4 °F 77% 29.65 in 10.0 mi WNW 17.3 mph - N/A   Partly Cloudy
8:55 AM 53.6 °F - 46.4 °F 77% 29.65 in 10.0 mi NW 16.1 mph - N/A   Clear
9:15 AM 55.4 °F - 46.4 °F 72% 29.66 in 10.0 mi NW 13.8 mph - N/A   Partly Cloudy
9:35 AM 55.4 °F - 46.4 °F 72% 29.67 in 10.0 mi NW 17.3 mph 21.9 mph N/A   Partly Cloudy
9:55 AM 57.2 °F - 48.2 °F 72% 29.66 in 10.0 mi NW 21.9 mph 26.5 mph N/A   Clear
10:15 AM 57.2 °F - 48.2 °F 72% 29.66 in 10.0 mi NW 19.6 mph 25.3 mph N/A   Clear
10:35 AM 57.2 °F - 48.2 °F 72% 29.67 in 10.0 mi NW 20.7 mph 28.8 mph N/A   Clear
10:55 AM 57.2 °F - 48.2 °F 72% 29.68 in 10.0 mi NW 20.7 mph 27.6 mph N/A   Clear
11:15 AM 57.2 °F - 48.2 °F 72% 29.67 in 10.0 mi NW 20.7 mph 26.5 mph N/A   Clear
11:35 AM 57.2 °F - 48.2 °F 72% 29.68 in 10.0 mi NNW 16.1 mph 21.9 mph N/A   Clear
11:55 AM 57.2 °F - 50.0 °F 77% 29.68 in 10.0 mi NNW 17.3 mph 21.9 mph N/A   Clear
12:15 PM 57.2 °F - 50.0 °F 77% 29.68 in 10.0 mi NW 10.4 mph - N/A   Clear
12:35 PM 57.2 °F - 50.0 °F 77% 29.68 in 10.0 mi NW 17.3 mph - N/A   Partly Cloudy
12:55 PM 57.2 °F - 50.0 °F 77% 29.68 in 10.0 mi NW 15.0 mph - N/A   Scattered Clouds
1:15 PM 53.6 °F - 46.4 °F 77% 29.69 in 10.0 mi NW 17.3 mph 26.5 mph N/A   Mostly Cloudy
1:35 PM 51.8 °F - 44.6 °F 76% 29.71 in 10.0 mi WNW 16.1 mph 24.2 mph N/A   Overcast
1:55 PM 48.2 °F - 44.6 °F 87% 29.73 in 10.0 mi WNW 17.3 mph - N/A   Mostly Cloudy
2:15 PM 48.2 °F - 44.6 °F 87% 29.73 in 10.0 mi WNW 18.4 mph 25.3 mph N/A   Mostly Cloudy
2:35 PM 48.2 °F - 44.6 °F 87% 29.74 in 10.0 mi WNW 19.6 mph - N/A   Mostly Cloudy
2:55 PM 50.0 °F - 44.6 °F 82% 29.76 in 10.0 mi NW 17.3 mph - N/A   Mostly Cloudy
3:15 PM 51.8 °F - 42.8 °F 71% 29.76 in 10.0 mi NW 17.3 mph 24.2 mph N/A   Clear
3:35 PM 53.6 °F - 42.8 °F 67% 29.76 in 10.0 mi NW 19.6 mph - N/A   Clear
3:55 PM 53.6 °F - 41.0 °F 62% 29.77 in 10.0 mi NW 18.4 mph 29.9 mph N/A   Clear
4:15 PM 55.4 °F - 41.0 °F 58% 29.78 in 10.0 mi NW 20.7 mph 31.1 mph N/A   Clear
4:35 PM 57.2 °F - 37.4 °F 48% 29.77 in 10.0 mi NW 25.3 mph 29.9 mph N/A   Clear
4:55 PM 55.4 °F - 37.4 °F 51% 29.78 in 10.0 mi NW 17.3 mph 27.6 mph N/A   Clear
5:15 PM 55.4 °F - 37.4 °F 51% 29.79 in 10.0 mi NW 11.5 mph - N/A   Clear
5:35 PM 55.4 °F - 37.4 °F 51% 29.81 in 10.0 mi NW 15.0 mph 19.6 mph N/A   Clear
5:55 PM 55.4 °F - 35.6 °F 47% 29.82 in 10.0 mi NW 16.1 mph - N/A   Clear
6:15 PM 53.6 °F - 35.6 °F 51% 29.82 in 10.0 mi WNW 16.1 mph - N/A   Clear
6:35 PM 53.6 °F - 35.6 °F 51% 29.83 in 10.0 mi WNW 11.5 mph - N/A   Clear
6:55 PM 51.8 °F - 35.6 °F 54% 29.83 in 10.0 mi West 8.1 mph - N/A   Clear
7:15 PM 48.2 °F - 35.6 °F 62% 29.84 in 10.0 mi West 8.1 mph - N/A   Clear
7:35 PM 48.2 °F - 35.6 °F 62% 29.84 in 10.0 mi WSW 8.1 mph - N/A   Clear
7:55 PM 48.2 °F - 35.6 °F 62% 29.85 in 10.0 mi WSW 8.1 mph - N/A   Clear
8:15 PM 46.4 °F 42.4 °F 35.6 °F 66% 29.86 in 10.0 mi WSW 8.1 mph - N/A   Clear
8:35 PM 46.4 °F 41.9 °F 35.6 °F 66% 29.87 in 10.0 mi WSW 9.2 mph - N/A   Clear
8:55 PM 48.2 °F - 35.6 °F 62% 29.88 in 10.0 mi West 10.4 mph - N/A   Clear
9:15 PM 48.2 °F - 35.6 °F 62% 29.89 in 10.0 mi West 15.0 mph 19.6 mph N/A   Clear
9:35 PM 48.2 °F - 33.8 °F 58% 29.89 in 10.0 mi West 12.7 mph - N/A   Clear
9:55 PM 48.2 °F - 32.0 °F 54% 29.90 in 10.0 mi West 13.8 mph - N/A   Clear
10:15 PM 46.4 °F 40.4 °F 30.2 °F 53% 29.90 in 10.0 mi West 13.8 mph - N/A   Clear
10:35 PM 46.4 °F 40.4 °F 30.2 °F 53% 29.90 in 10.0 mi West 13.8 mph - N/A   Clear
10:55 PM 46.4 °F 41.1 °F 30.2 °F 53% 29.91 in 10.0 mi West 11.5 mph - N/A   Clear
11:15 PM 44.6 °F 38.8 °F 30.2 °F 57% 29.91 in 10.0 mi West 11.5 mph - N/A   Clear
11:35 PM 44.6 °F 39.7 °F 30.2 °F 57% 29.91 in 10.0 mi West 9.2 mph - N/A   Clear
11:55 PM 42.8 °F 37.0 °F 30.2 °F 61% 29.93 in 10.0 mi West 10.4 mph - N/A   Clear